Flag for Russia Weather past 2 weeks in Novorossiysk, Russia

Now
64 °F

Passing clouds.


Feels Like: 64 °F
Forecast: 49 / 77 °F
Wind: 3 mph from West

Location: Anapa / Vitiazevo


UV Index: 5 (Moderate)

Visibility: N/A


Pressure: 30.04 "Hg

Humidity: 64%

Dew point: 52 °F

Location of NovorossiyskLocation

Historic Weather in Novorossiysk

°F

Novorossiysk temperature yesterday

Maximum temperature yesterday: 61 °F (at 11:00 AM)
Minimum temperature yesterday: 36 °F (at 5:00 AM)
Average temperature yesterday: 50 °F

Past Weeks' High & Low Weather Summary

 TemperatureHumidityPressure
High70 °F (Apr 11, 11:30 AM)100% (Apr 14, 7:30 AM)30.33 "Hg (Apr 14, 7:30 AM)
Low23 °F (Apr 3, 3:00 AM)17% (Apr 7, 10:30 AM)29.74 "Hg (Apr 1, 7:00 PM)
Average48 °F67%30.01 "Hg
* Reported Apr 1 11:00 AM — Apr 16 11:30 AM, Novorossiysk, Weather by CustomWeather, © 2014

Note: Actual official high and low records may vary slightly from our data, if they occured in-between our weather recording intervals... More about our weather records

Advertising

Historic Weather Conditions — Data for Previous 24 hours

 ConditionsComfort  
Time TempWeatherWind HumidityBarometerVisibility
11:30 AM
Apr 16
64 °FSunny.1 mph64%30.04 "Hg10 mi
11:00 AM63 °FSunny.1 mph73%30.04 "Hg10 mi
10:30 AM61 °FPassing clouds.3 mph72%30.04 "HgN/A
10:00 AM59 °FSunny.1 mph77%30.04 "Hg10 mi
9:30 AM55 °FPassing clouds.3 mph82%30.01 "HgN/A
9:00 AM54 °FPassing clouds.3 mph88%30.01 "HgN/A
8:30 AM52 °FSunny.1 mph88%30.01 "Hg10 mi
8:00 AM48 °FSunny.No wind87%30.01 "Hg10 mi
7:30 AM41 °FFog.1 mph93%30.01 "HgN/A
7:00 AM43 °FFog.No wind87%29.98 "HgN/A
6:30 AM43 °FClear.3 mph93%29.98 "Hg10 mi
6:00 AM43 °FClear.3 mph87%29.98 "Hg10 mi
5:00 AM43 °FClear.3 mph93%29.95 "Hg10 mi
3:00 AM43 °FClear.3 mph93%29.98 "Hg10 mi
2:00 AM43 °FClear.1 mph87%29.98 "Hg10 mi
1:00 AM46 °FClear.1 mph82%29.98 "Hg10 mi
12:00 AM46 °FPassing clouds.6 mph87%30.01 "HgN/A
11:30 PM
Apr 15
45 °FPassing clouds.6 mph87%30.01 "HgN/A
11:00 PM45 °FClear.6 mph93%30.01 "Hg10 mi
10:30 PM45 °FClear.3 mph87%30.01 "Hg10 mi
10:00 PM43 °FClear.6 mph87%30.01 "Hg10 mi
9:30 PM45 °FClear.1 mph81%30.01 "Hg10 mi
9:00 PM48 °FSunny.1 mph82%30.01 "Hg10 mi
8:30 PM50 °FSunny.1 mph88%30.01 "Hg10 mi
8:00 PM54 °FSunny.1 mph77%29.98 "Hg10 mi
7:30 PM55 °FSunny.3 mph77%29.98 "Hg10 mi
7:00 PM57 °FPassing clouds.3 mph72%30.01 "HgN/A
6:30 PM57 °FSunny.8 mph72%30.01 "Hg10 mi
6:00 PM57 °FPassing clouds.6 mph72%30.01 "HgN/A
5:30 PM57 °FSunny.8 mph72%30.01 "Hg10 mi
5:00 PM57 °FScattered clouds.8 mph77%30.01 "HgN/A
4:30 PM57 °FScattered clouds.15 mph77%30.01 "HgN/A
4:00 PM59 °FScattered clouds.15 mph72%30.01 "HgN/A
3:30 PM59 °FScattered clouds.15 mph72%30.01 "HgN/A
3:00 PM59 °FScattered clouds.17 mph72%30.04 "HgN/A
2:30 PM59 °FScattered clouds.15 mph72%30.04 "HgN/A
2:00 PM57 °FScattered clouds.15 mph72%30.04 "HgN/A
1:30 PM59 °FScattered clouds.15 mph68%30.04 "HgN/A
1:00 PM57 °FScattered clouds.13 mph67%30.04 "HgN/A
12:30 PM57 °FScattered clouds.13 mph67%30.04 "HgN/A
12:00 PM59 °FScattered clouds.10 mph59%30.04 "HgN/A
Weather by CustomWeather, © 2014

See weather overview